Location: De Greiden
(52.9496°N, 5.9137°E)
Time: 00:58:37
(UTC+00:00)

NOSS 2-2 (E) - Pass Details

Date: 24 January 2021
Orbit: 465 x 1741 km, 63.3° (Epoch: 16 January)

Event Time Altitude Azimuth Distance (km) Brightness Sun altitude
Rises 18:55:59 0° 312° (NW) 2,969 7.8 -25.2°
Reaches altitude 10° 18:58:01 10° 316° (NW) 2,187 6.9 -25.5°
Maximum altitude 19:02:59 64° 38° (NE) 968 4.2 -26.2°
Enters shadow 19:03:03 64° 42° (NE) 971 4.2 -26.2°
